When you browse on this site, cookies collect data to enhance your experience and personalize the content and advertising you see.
Visit our Privacy Policy to learn more. By continuing to use the site, you agree to this use of cookies and data.
  • In Czech Republic
  • List of Countries
  • For 7 days
  • Water Temperature
  • Satellite Maps
  • Weather Map
  • Weather Widgets
  • user-avatar
    Login

    Hourly Weather Drzyslaw

    Today, 19 February, Tuesday

    Time Temperature Precipitation Wind Pressure Humidity
    00:00 +4°C° 0 mm 3 mps 756 mmHg 86%
    01:00 +4°C° 0 mm 3 mps 756 mmHg 87%
    02:00 +3°C° 0 mm 3 mps 755 mmHg 88%
    03:00 +3°C° 0 mm 3 mps 755 mmHg 88%
    04:00 +3°C° 0 mm 4 mps 754 mmHg 89%
    05:00 +3°C° 0 mm 4 mps 754 mmHg 89%
    06:00 +3°C° 0 mm 4 mps 754 mmHg 89%
    07:00 +3°C° 0 mm 4 mps 753 mmHg 89%
    08:00 +4°C° 0 mm 4 mps 753 mmHg 87%
    09:00 +3°C° 0 mm 5 mps 753 mmHg 84%
    10:00 +5°C° 0 mm 5 mps 754 mmHg 81%
    11:00 +6°C° 0.3 mm 5 mps 754 mmHg 83%
    12:00 +6°C° 0.3 mm 5 mps 754 mmHg 85%
    13:00 +6°C° 0.3 mm 5 mps 754 mmHg 86%
    14:00 +6°C° 0 mm 5 mps 754 mmHg 82%
    15:00 +5°C° 0 mm 6 mps 754 mmHg 79%
    16:00 +5°C° 0 mm 6 mps 754 mmHg 75%
    17:00 +5°C° 0.1 mm 6 mps 754 mmHg 76%
    18:00 +6°C° 0.1 mm 5 mps 754 mmHg 78%
    19:00 +6°C° 0.1 mm 5 mps 754 mmHg 79%
    20:00 +5°C° 0.1 mm 5 mps 754 mmHg 81%
    21:00 +5°C° 0.1 mm 5 mps 754 mmHg 82%
    22:00 +3°C° 0.1 mm 6 mps 754 mmHg 84%
    23:00 +3°C° 0 mm 6 mps 755 mmHg 84%

    Tomorrow, 20 February, Wednesday

    Time Temperature Precipitation Wind Pressure Humidity
    00:00 +3°C° 0 mm 6 mps 755 mmHg 84%
    01:00 +3°C° 0 mm 6 mps 755 mmHg 84%
    02:00 +3°C° 0 mm 6 mps 755 mmHg 84%
    03:00 +3°C° 0 mm 6 mps 755 mmHg 83%
    04:00 +3°C° 0 mm 7 mps 755 mmHg 83%
    05:00 +3°C° 0.1 mm 6 mps 756 mmHg 82%
    06:00 +3°C° 0.1 mm 6 mps 756 mmHg 82%
    07:00 +3°C° 0.1 mm 6 mps 756 mmHg 82%
    08:00 +3°C° 0.1 mm 6 mps 757 mmHg 80%
    09:00 +4°C° 0.1 mm 6 mps 757 mmHg 78%
    10:00 +4°C° 0.1 mm 7 mps 758 mmHg 76%
    11:00 +4°C° 0 mm 7 mps 758 mmHg 75%
    12:00 +5°C° 0 mm 6 mps 759 mmHg 74%
    13:00 +5°C° 0 mm 6 mps 759 mmHg 72%
    14:00 +6°C° 0 mm 5 mps 759 mmHg 73%
    15:00 +6°C° 0 mm 5 mps 759 mmHg 74%
    16:00 +6°C° 0 mm 4 mps 759 mmHg 75%
    17:00 +7°C° 0 mm 3 mps 760 mmHg 79%
    18:00 +5°C° 0 mm 3 mps 760 mmHg 82%
    19:00 +6°C° 0 mm 2 mps 760 mmHg 85%
    20:00 +6°C° 0.1 mm 2 mps 760 mmHg 87%
    21:00 +5°C° 0.1 mm 3 mps 760 mmHg 88%
    22:00 +5°C° 0.1 mm 3 mps 760 mmHg 90%
    23:00 +5°C° 0.3 mm 3 mps 760 mmHg 89%

    Day after tomorrow, 21 February, Thursday

    Time Temperature Precipitation Wind Pressure Humidity
    00:00 +5°C° 0.3 mm 4 mps 760 mmHg 89%
    01:00 +5°C° 0.3 mm 4 mps 760 mmHg 89%
    02:00 +5°C° 0.8 mm 4 mps 760 mmHg 90%
    03:00 +5°C° 0.8 mm 5 mps 759 mmHg 91%
    04:00 +5°C° 0.8 mm 5 mps 759 mmHg 92%
    05:00 +5°C° 0.6 mm 5 mps 759 mmHg 92%
    06:00 +5°C° 0.6 mm 5 mps 759 mmHg 92%
    07:00 +5°C° 0.6 mm 5 mps 759 mmHg 92%
    08:00 +5°C° 1.7 mm 5 mps 759 mmHg 92%
    09:00 +5°C° 1.7 mm 5 mps 759 mmHg 92%
    10:00 +5°C° 1.7 mm 5 mps 759 mmHg 93%
    11:00 +5°C° 0.8 mm 5 mps 759 mmHg 93%
    12:00 +6°C° 0.8 mm 5 mps 759 mmHg 92%
    13:00 +6°C° 0.8 mm 5 mps 759 mmHg 92%
    14:00 +6°C° 0.5 mm 5 mps 759 mmHg 91%
    15:00 +5°C° 0.5 mm 6 mps 759 mmHg 90%
    16:00 +5°C° 0.5 mm 6 mps 760 mmHg 89%
    17:00 +5°C° 0.1 mm 6 mps 760 mmHg 90%
    18:00 +5°C° 0.1 mm 6 mps 761 mmHg 90%
    19:00 +6°C° 0.1 mm 5 mps 761 mmHg 91%
    20:00 +6°C° 0.1 mm 5 mps 762 mmHg 91%
    21:00 +6°C° 0.1 mm 5 mps 762 mmHg 90%
    22:00 +4°C° 0.1 mm 6 mps 763 mmHg 90%
    23:00 +5°C° 0.1 mm 5 mps 764 mmHg 90%

    22 February, Friday

    Time Temperature Precipitation Wind Pressure Humidity
    00:00 +5°C° 0.1 mm 5 mps 764 mmHg 91%
    01:00 +4°C° 0.1 mm 4 mps 765 mmHg 91%
    02:00 +3°C° 0 mm 4 mps 766 mmHg 89%
    03:00 +1°C° 0 mm 4 mps 767 mmHg 87%
    04:00 +1°C° 0 mm 4 mps 767 mmHg 85%
    05:00 0°C° 0 mm 4 mps 768 mmHg 84%
    06:00 -1°C° 0 mm 4 mps 770 mmHg 83%
    07:00 -1°C° 0 mm 4 mps 771 mmHg 82%
    08:00 -1°C° 0 mm 4 mps 771 mmHg 77%
    09:00 0°C° 0 mm 4 mps 772 mmHg 72%
    10:00 0°C° 0 mm 4 mps 773 mmHg 67%
    11:00 +1°C° 0 mm 4 mps 774 mmHg 63%
    12:00 +2°C° 0 mm 3 mps 774 mmHg 59%
    13:00 +3°C° 0 mm 3 mps 775 mmHg 55%
    14:00 +3°C° 0 mm 3 mps 775 mmHg 55%
    15:00 +3°C° 0 mm 3 mps 775 mmHg 55%
    16:00 +4°C° 0 mm 2 mps 776 mmHg 55%
    17:00 +3°C° 0 mm 2 mps 776 mmHg 60%
    18:00 +2°C° 0 mm 2 mps 776 mmHg 65%
    19:00 +1°C° 0 mm 2 mps 776 mmHg 70%
    20:00 -1°C° 0 mm 2 mps 777 mmHg 70%
    21:00 -1°C° 0 mm 2 mps 777 mmHg 70%
    22:00 -1°C° 0 mm 2 mps 777 mmHg 70%
    23:00 -1°C° 0 mm 2 mps 777 mmHg 68%

    23 February, Saturday

    Time Temperature Precipitation Wind Pressure Humidity
    00:00 -2°C° 0 mm 3 mps 777 mmHg 66%
    01:00 -2°C° 0 mm 3 mps 777 mmHg 64%
    02:00 -2°C° 0 mm 3 mps 777 mmHg 62%
    03:00 -2°C° 0 mm 3 mps 777 mmHg 61%
    04:00 -2°C° 0 mm 2 mps 776 mmHg 59%
    05:00 -2°C° 0 mm 2 mps 776 mmHg 59%
    06:00 -2°C° 0 mm 2 mps 776 mmHg 59%
    07:00 -2°C° 0 mm 2 mps 776 mmHg 59%
    08:00 -1°C° 0 mm 3 mps 776 mmHg 56%
    09:00 0°C° 0 mm 3 mps 776 mmHg 52%
    10:00 +1°C° 0 mm 3 mps 776 mmHg 49%
    11:00 +2°C° 0 mm 3 mps 775 mmHg 48%
    12:00 +3°C° 0 mm 3 mps 775 mmHg 46%
    13:00 +4°C° 0 mm 3 mps 775 mmHg 45%
    14:00 +5°C° 0 mm 2 mps 774 mmHg 48%
    15:00 +5°C° 0 mm 2 mps 774 mmHg 51%
    16:00 +5°C° 0 mm 2 mps 774 mmHg 55%
    17:00 +5°C° 0 mm 1 mps 773 mmHg 60%
    18:00 +4°C° 0 mm 1 mps 773 mmHg 65%
    19:00 +3°C° 0 mm 1 mps 773 mmHg 70%
    20:00 +3°C° 0 mm 1 mps 773 mmHg 73%
    21:00 +3°C° 0 mm 1 mps 773 mmHg 75%
    22:00 +3°C° 0 mm 1 mps 773 mmHg 78%
    23:00 +4°C° 0 mm 1 mps 773 mmHg 80%

    24 February, Sunday

    Time Temperature Precipitation Wind Pressure Humidity
    00:00 +4°C° 0 mm 1 mps 773 mmHg 83%
    01:00 +4°C° 0 mm 1 mps 773 mmHg 85%
    02:00 +4°C° 0 mm 1 mps 773 mmHg 87%
    03:00 +3°C° 0 mm 1 mps 773 mmHg 89%
    04:00 +3°C° 0 mm 1 mps 773 mmHg 91%
    05:00 +3°C° 0 mm 1 mps 773 mmHg 92%
    06:00 +3°C° 0 mm 1 mps 773 mmHg 92%
    07:00 +3°C° 0 mm 1 mps 773 mmHg 93%
    08:00 +4°C° 0 mm 1 mps 773 mmHg 89%
    09:00 +5°C° 0 mm 1 mps 774 mmHg 85%
    10:00 +5°C° 0 mm 2 mps 774 mmHg 81%
    11:00 +6°C° 0 mm 2 mps 774 mmHg 79%
    12:00 +7°C° 0 mm 2 mps 773 mmHg 76%
    13:00 +7°C° 0 mm 2 mps 773 mmHg 73%
    14:00 +8°C° 0 mm 2 mps 773 mmHg 74%
    15:00 +8°C° 0 mm 2 mps 773 mmHg 74%
    16:00 +8°C° 0 mm 2 mps 772 mmHg 74%
    17:00 +7°C° 0 mm 2 mps 772 mmHg 78%
    18:00 +7°C° 0 mm 1 mps 772 mmHg 82%
    19:00 +6°C° 0 mm 1 mps 772 mmHg 86%
    20:00 +5°C° 0 mm 2 mps 772 mmHg 87%
    21:00 +4°C° 0 mm 2 mps 772 mmHg 88%
    22:00 +4°C° 0 mm 2 mps 771 mmHg 90%
    23:00 +4°C° 0 mm 2 mps 771 mmHg 90%
    Show more